Home > Weather > Heidelberg > Past weeks

Flag for Germany Past Weather in Heidelberg, Baden-Württemberg, Germany — Yesterday and Last 2 Weeks

Now
75 °F

Passing clouds.


Feels Like: 78 °F
Forecast: 62 / 80 °F
Wind: 6 mph from Southwest

Location: Mannheim City

Current Time: Jul 29, 2016 at 9:49:24 PM

Latest Report: Jul 29, 2016 at 8:50 PM


Visibility: N/A

Pressure: 29.92 "Hg

Humidity: 54%

Dew Point: 57 °F

Location of HeidelbergLocation

Past Weather in Heidelberg — Graph

°F

Heidelberg Temperature Yesterday

Maximum temperature yesterday: 77 °F (at 3:20 PM)
Minimum temperature yesterday: 64 °F (at 6:20 AM)
Average temperature yesterday: 73 °F

High & Low Weather Summary for the Past Weeks

 TemperatureHumidityPressure
High95 °F (Jul 20, 4:50 PM)100% (Jul 21, 6:50 AM)30.33 "Hg (Jul 21, 6:50 AM)
Low55 °F (Jul 16, 7:20 AM)20% (Jul 20, 5:50 PM)29.89 "Hg (Jul 20, 5:50 PM)
Average75 °F62%30.08 "Hg
* Reported Jul 14 8:20 PM — Jul 29 8:20 PM, Heidelberg, Weather by CustomWeather, © 2016

Note: Actual official high and low records may vary slightly from our data, if they occured in-between our weather recording intervals... More about our weather records

Advertising

Heidelberg Weather History for the Previous 24 Hours

Scroll right to see more
 ConditionsComfort  
Time TempWeatherWind HumidityBarometerVisibility
8:20 PM
Fri, Jul 29
77 °FPassing clouds.9 mph51%29.92 "HgN/A
7:50 PM77 °FPassing clouds.12 mph51%29.92 "HgN/A
7:20 PM79 °FPassing clouds.9 mph51%29.92 "HgN/A
6:50 PM77 °FPassing clouds.13 mph51%29.92 "HgN/A
6:20 PM79 °FPassing clouds.13 mph51%29.92 "HgN/A
5:50 PM79 °FPassing clouds.13 mph51%29.92 "HgN/A
5:20 PM79 °FPassing clouds.13 mph51%29.92 "HgN/A
4:50 PM79 °FScattered clouds.12 mph54%29.92 "HgN/A
4:20 PM79 °FBroken clouds.9 mph54%29.92 "HgN/A
3:50 PM79 °FScattered clouds.10 mph54%29.95 "HgN/A
3:20 PM77 °FScattered clouds.13 mph54%29.95 "HgN/A
2:50 PM77 °FBroken clouds.8 mph57%29.95 "HgN/A
2:20 PM77 °FPassing clouds.10 mph54%29.95 "HgN/A
1:50 PM77 °FBroken clouds.12 mph57%29.95 "HgN/A
1:20 PM75 °FScattered clouds.12 mph61%29.95 "HgN/A
12:50 PM75 °FScattered clouds.12 mph61%29.98 "HgN/A
12:20 PM75 °FBroken clouds.10 mph61%29.98 "HgN/A
11:50 AM73 °FBroken clouds.9 mph65%29.98 "HgN/A
11:20 AM73 °FBroken clouds.7 mph65%29.98 "HgN/A
10:50 AM73 °FPartly sunny.8 mph61%29.98 "HgN/A
10:20 AM72 °FScattered clouds.9 mph65%29.98 "HgN/A
9:50 AM70 °FScattered clouds.8 mph73%29.98 "HgN/A
9:20 AM70 °FPartly sunny.9 mph73%30.01 "HgN/A
8:50 AM70 °FPartly sunny.10 mph73%29.98 "HgN/A
8:20 AM68 °FPassing clouds.7 mph83%29.98 "HgN/A
7:50 AM68 °FPassing clouds.7 mph83%29.98 "HgN/A
7:20 AM68 °FPassing clouds.5 mph83%29.98 "HgN/A
6:50 AM66 °FPassing clouds.6 mph94%29.98 "HgN/A
6:20 AM66 °FPassing clouds.5 mph94%29.98 "HgN/A
5:50 AM66 °FPassing clouds.6 mph94%29.98 "HgN/A
9:20 PM
Thu, Jul 28
72 °FSunny.5 mph73%29.98 "Hg10 mi
Weather by CustomWeather, © 2016

See weather overviewHow to use our weather pages